Ashland, WI

8:42 AM CDT on July 20, 2017 (GMT -0500)
Kennedy Memorial

Weather History for KASX - December, 2013

Change the Weather History Date:

Monday, December 16, 2013

  Actual Average Record
Temperature  
Mean Temperature -1 °F -  
Max Temperature 14 °F 26 °F 51 °F (1984)
Min Temperature -14 °F 9 °F -18 °F (2008)
Degree Days  
Heating Degree Days 66    
Moisture  
Dew Point 0 °F    
Average Humidity 78    
Maximum Humidity 85    
Minimum Humidity 64    
Precipitation  
Precipitation 0.06 in - - ()
Sea Level Pressure  
Sea Level Pressure 29.98 in    
Wind  
Wind Speed 8 mph (SW)    
Max Wind Speed 14 mph    
Max Gust Speed 25 mph    
Visibility 5 miles    
Events Fog , Snow    
Averages and records for this station are not official NWS values.
T = Trace of Precipitation, MM = Missing Value Source: NWS Daily Summary

Daily Weather History Graph

Daily Weather History Graph

Search for Another Location

Airport or City:

Trip Planner

Search our weather history database for the weather conditions in past years. The results will help you decide how hot, cold, wet, or windy it might be!

Date:

Astronomy

Dec. 16, 2013 Rise Set
Actual Time 7:41 AM CST 4:17 PM CST
Civil Twilight 7:06 AM CST 4:52 PM CST
Nautical Twilight 6:28 AM CST 5:30 PM CST
Astronomical Twilight 5:51 AM CST 6:07 PM CST
Moon 4:10 PM CST (12/16) 6:47 AM CST (12/16)
Length of Visible Light 9h 45m
Length of Day
8h 35m
Full, 100% of the Moon is Illuminated
Dec 16
Full
Dec 17
Full
Dec 25
Last Quarter
Jan 1
New
Jan 7
First Quarter

Hourly Weather History & Observations

Time (CST) Temp. Windchill Dew Point Humidity Pressure Visibility Wind Dir Wind Speed Gust Speed Precip Events Conditions
12:53 AM -14.1 °F -28.3 °F -18.0 °F 82% 30.19 in 10.0 mi SSW 5.8 mph - N/A   Clear
1:53 AM -11.0 °F -24.6 °F -15.0 °F 83% 30.17 in 10.0 mi SW 5.8 mph - N/A   Clear
2:53 AM -8.0 °F -22.5 °F -11.9 °F 83% 30.17 in 10.0 mi SW 6.9 mph - N/A   Mostly Cloudy
3:53 AM -6.0 °F -18.6 °F -11.0 °F 79% 30.17 in 10.0 mi WSW 5.8 mph - N/A   Overcast
4:53 AM -5.1 °F -15.8 °F -9.9 °F 80% 30.16 in 10.0 mi SW 4.6 mph - N/A   Overcast
5:53 AM -4.0 °F -12.4 °F -9.0 °F 79% 30.15 in 10.0 mi SSW 3.5 mph - N/A   Overcast
6:53 AM -2.0 °F -10.1 °F -8.0 °F 76% 30.12 in 10.0 mi South 3.5 mph - N/A   Overcast
7:53 AM -0.9 °F -8.9 °F -7.1 °F 75% 30.10 in 10.0 mi SSW 3.5 mph - N/A   Overcast
8:53 AM 1.0 °F - -5.1 °F 75% 30.10 in 10.0 mi Calm Calm - N/A   Overcast
9:53 AM 5.0 °F -6.9 °F -2.9 °F 70% 30.06 in 10.0 mi South 6.9 mph - N/A   Overcast
10:53 AM 7.0 °F -9.8 °F -2.9 °F 64% 30.02 in 10.0 mi South 13.8 mph 25.3 mph N/A   Overcast
11:18 AM 6.8 °F -7.8 °F -2.2 °F 67% 29.98 in 2.0 mi SW 10.4 mph - 0.00 in Snow Light Snow
11:20 AM 6.8 °F -5.9 °F -2.2 °F 67% 29.98 in 1.8 mi WSW 8.1 mph 16.1 mph 0.00 in Snow Light Snow
11:34 AM 6.8 °F -7.8 °F -0.4 °F 72% 30.00 in 0.5 mi West 10.4 mph - 0.01 in Snow Snow
11:38 AM 6.8 °F -5.9 °F 1.4 °F 79% 29.99 in 0.2 mi SW 8.1 mph - 0.01 in Snow Heavy Snow
11:50 AM 6.8 °F -5.9 °F 1.4 °F 79% 29.98 in 0.2 mi SW 8.1 mph - 0.03 in Fog , Snow Heavy Snow
11:53 AM 6.1 °F -6.8 °F 1.9 °F 83% 30.06 in 0.2 mi SW 8.1 mph - 0.04 in Fog , Snow Heavy Snow
12:21 PM 6.8 °F -7.8 °F 1.4 °F 79% 29.94 in 0.5 mi South 10.4 mph - 0.01 in Fog , Snow Snow
12:33 PM 6.8 °F -4.8 °F 1.4 °F 79% 29.94 in 1.0 mi SSW 6.9 mph - 0.01 in Snow Light Snow
12:46 PM 6.8 °F -4.8 °F 1.4 °F 79% 29.94 in 3.0 mi South 6.9 mph - 0.02 in Snow Light Snow
12:53 PM 7.0 °F -7.5 °F 1.9 °F 80% 30.02 in 3.0 mi SSW 10.4 mph - 0.02 in Snow Light Snow
1:53 PM 8.1 °F -6.2 °F 1.9 °F 76% 29.97 in 6.0 mi SSW 10.4 mph - 0.00 in Snow Light Snow
2:05 PM 8.6 °F -2.6 °F 1.4 °F 73% 29.90 in 2.5 mi SSW 6.9 mph - 0.00 in Snow Light Snow
2:15 PM 8.6 °F -5.5 °F 3.2 °F 79% 29.90 in 1.0 mi SSW 10.4 mph - 0.00 in Snow Light Snow
2:27 PM 8.6 °F -4.7 °F 3.2 °F 79% 29.90 in 2.0 mi SSW 9.2 mph - 0.00 in Snow Light Snow
2:39 PM 8.6 °F -5.5 °F 3.2 °F 79% 29.90 in 4.0 mi SW 10.4 mph 17.3 mph 0.00 in Snow Light Snow
2:51 PM 8.6 °F -6.3 °F 1.4 °F 73% 29.90 in 6.0 mi SW 11.5 mph - 0.00 in Snow Light Snow
2:53 PM 9.0 °F -7.3 °F 1.9 °F 73% 29.97 in 6.0 mi SW 13.8 mph - 0.00 in Snow Light Snow
3:53 PM 9.0 °F -4.2 °F 1.9 °F 73% 29.97 in 3.0 mi SW 9.2 mph - 0.00 in Snow Light Snow
4:53 PM 9.0 °F -4.2 °F 3.0 °F 77% 29.97 in 4.0 mi SW 9.2 mph - 0.00 in Snow Light Snow
5:06 PM 8.6 °F -4.7 °F 3.2 °F 79% 29.90 in 2.0 mi SW 9.2 mph - 0.00 in Snow Light Snow
5:16 PM 8.6 °F -5.5 °F 3.2 °F 79% 29.90 in 5.0 mi SW 10.4 mph - 0.00 in Snow Light Snow
5:46 PM 8.6 °F -3.7 °F 3.2 °F 79% 29.89 in 2.5 mi SW 8.1 mph - 0.00 in Snow Light Snow
5:53 PM 9.0 °F -4.2 °F 3.9 °F 80% 29.97 in 2.5 mi SW 9.2 mph - 0.00 in Snow Light Snow
5:57 PM 8.6 °F -4.7 °F 3.2 °F 79% 29.90 in 3.0 mi SW 9.2 mph - 0.00 in Snow Light Snow
6:29 PM 8.6 °F -4.7 °F 3.2 °F 79% 29.89 in 1.8 mi SW 9.2 mph - 0.00 in Snow Light Snow
6:38 PM 8.6 °F -4.7 °F 5.0 °F 85% 29.88 in 1.8 mi SW 9.2 mph - 0.00 in Snow Light Snow
6:53 PM 10.0 °F -2.9 °F 5.0 °F 80% 29.94 in 3.0 mi SW 9.2 mph - 0.00 in Snow Light Snow
7:09 PM 10.4 °F -1.5 °F 5.0 °F 79% 29.88 in 10.0 mi SW 8.1 mph - 0.00 in   Overcast
7:53 PM 10.9 °F -0.8 °F 6.1 °F 81% 29.94 in 10.0 mi SW 8.1 mph - 0.00 in   Overcast
8:53 PM 10.9 °F -1.8 °F 7.0 °F 84% 29.91 in 9.0 mi SW 9.2 mph - N/A   Overcast
9:10 PM 10.4 °F -4.1 °F 6.8 °F 85% 29.85 in 9.0 mi SW 11.5 mph - N/A   Overcast
9:53 PM 10.9 °F -2.6 °F 7.0 °F 84% 29.90 in 10.0 mi SW 10.4 mph - N/A   Overcast
10:53 PM 12.9 °F -1.6 °F 9.0 °F 84% 29.88 in 9.0 mi SW 12.7 mph - N/A   Overcast
11:53 PM 14.0 °F -0.2 °F 10.0 °F 84% 29.86 in 8.0 mi SW 12.7 mph - N/A   Overcast